DELTA 2 R/B

Last updated on Sun Jun 21 2026 00:02:15 GMT+0000 (Coordinated Universal Time)

1 25876U 99041E 26171.43135163 .00000318 00000+0 89362-4 0 9997 2 25876 51.7649 250.8374 0500852 291.6071 63.2220 14.12020124377545
UTC large
Height (km)
Speed (km/s)
/
Latitude / Longitude
Inclination (degrees)
Orbital Period (minutes)
Azimuth
Elevation
Range (km)
Doppler Factor

Next 0 passes for location: London (51.5072 / 0.1276)

No passes found over London.
DELTA 2 R/B